EA1EI-13 Weather Reports


Display with metric or nautical units.
time (UTC)temp
F
wind
direction
speed
MPH
gust
MPH
rain 1hr
in
rain 24hr
in
rain mn
in
humidity
%
barometer
mb
20260508040004 46 98 0.0 0.0 0.00 0.07 0.00 89 1008.8
20260508035005 46 98 0.0 0.0 0.00 0.07 0.00 89 1008.9
20260508034005 47 98 0.0 0.0 0.00 0.07 0.00 89 1008.9
20260508033004 47 98 0.0 0.0 0.00 0.07 0.00 89 1008.8
20260508032004 47 98 0.0 0.0 0.00 0.07 0.00 89 1008.8
20260508031004 47 98 0.0 0.0 0.00 0.07 0.00 89 1008.7
20260508030005 47 97 0.0 0.0 0.00 0.07 0.00 89 1008.8
20260508025005 47 88 0.0 0.0 0.00 0.07 0.00 89 1008.7
20260508024004 47 100 0.0 0.0 0.00 0.07 0.00 88 1008.6
20260508022004 48 99 0.0 0.0 0.00 0.07 0.00 87 1008.7
20260508021005 49 94 0.0 0.0 0.00 0.07 0.00 87 1008.8
20260508020005 49 101 0.0 0.0 0.00 0.07 0.00 86 1009.0
20260508015004 49 101 0.0 0.0 0.00 0.07 0.00 86 1009.0
20260508013005 50 101 0.0 0.0 0.00 0.07 0.00 85 1009.3
20260508005004 52 104 0.0 0.0 0.00 0.07 0.00 82 1009.8
20260508004004 52 102 0.0 0.0 0.00 0.07 0.00 82 1009.9
20260508003005 52 101 0.0 0.0 0.00 0.07 0.00 81 1009.9
20260508001004 52 101 0.0 0.0 0.00 0.07 0.00 82 1010.0
20260508000004 52 101 0.0 0.0 0.00 0.07 0.00 82 1010.1
20260507235004 52 107 0.0 0.0 0.00 0.07 0.07 82 1010.1
20260507234004 52 103 0.0 0.0 0.00 0.07 0.07 83 1010.1
20260507233005 52 101 0.0 0.0 0.00 0.07 0.07 83 1010.3
20260507232004 52 103 0.0 0.0 0.00 0.07 0.07 83 1010.3
20260507231005 52 115 0.0 1.0 0.00 0.07 0.07 83 1010.2
20260507230005 52 117 0.0 0.0 0.00 0.07 0.07 83 1010.3
20260507225004 52 110 0.0 0.0 0.00 0.07 0.07 83 1010.4
20260507224005 52 116 0.0 0.0 0.00 0.07 0.07 83 1010.5
20260507223004 53 100 0.0 0.0 0.00 0.07 0.07 82 1010.5
20260507222004 53 121 0.0 0.0 0.00 0.07 0.07 81 1010.6
20260507220004 54 123 0.0 0.0 0.00 0.07 0.07 81 1010.5
20260507215004 54 123 0.0 0.0 0.00 0.07 0.07 82 1010.5
20260507214005 54 123 0.0 0.0 0.00 0.07 0.07 82 1010.5
20260507213004 53 122 0.0 1.0 0.00 0.07 0.07 82 1010.5
20260507212004 54 103 0.0 0.0 0.00 0.07 0.07 81 1010.4
20260507211005 54 108 0.0 0.0 0.00 0.07 0.07 81 1010.3
20260507210005 54 98 0.0 0.0 0.00 0.07 0.07 81 1010.2
20260507204004 55 94 0.0 0.0 0.00 0.07 0.07 78 1009.9
20260507203004 56 91 0.0 0.0 0.00 0.07 0.07 76 1009.9
20260507202005 56 295 0.0 0.0 0.00 0.07 0.07 75 1009.8
20260507201003 56 295 0.0 0.0 0.00 0.07 0.07 75 1009.7
20260507200005 57 302 0.0 0.0 0.00 0.07 0.07 75 1009.7
20260507195005 57 331 0.0 0.0 0.00 0.07 0.07 75 1009.7
20260507194006 57 325 0.0 3.0 0.00 0.07 0.07 73 1009.8
20260507193005 57 265 0.0 3.0 0.00 0.07 0.07 71 1009.7
20260507192005 57 213 0.0 1.0 0.00 0.07 0.07 71 1009.4
20260507191005 57 218 0.0 1.0 0.00 0.07 0.07 70 1009.1
20260507190005 58 203 0.0 1.0 0.00 0.07 0.07 69 1009.1
20260507185004 58 204 1.0 5.0 0.00 0.07 0.07 68 1009.0
20260507184004 59 202 0.0 3.0 0.00 0.07 0.07 66 1008.9
20260507183004 60 96 0.0 2.0 0.00 0.07 0.07 65 1008.7
20260507182004 60 114 0.0 6.0 0.00 0.07 0.07 64 1008.5
20260507180004 62 104 1.0 8.0 0.00 0.07 0.07 64 1008.3
20260507174004 62 96 0.0 1.0 0.00 0.07 0.07 56 1008.3
20260507173005 63 98 0.0 7.0 0.00 0.07 0.07 58 1008.2
20260507171004 63 105 0.0 3.0 0.00 0.07 0.07 59 1008.2
20260507170004 63 109 0.0 6.0 0.00 0.07 0.07 58 1008.2
20260507165004 63 98 0.0 3.0 0.00 0.07 0.07 59 1008.2
20260507164005 64 82 0.0 5.0 0.00 0.07 0.07 60 1008.1
20260507163005 64 113 0.0 2.0 0.00 0.07 0.07 59 1008.2
20260507161004 63 52 0.0 6.0 0.00 0.07 0.07 61 1008.1
20260507160005 64 77 0.0 2.0 0.00 0.07 0.07 57 1008.1
20260507154004 65 64 0.0 0.0 0.00 0.07 0.07 52 1008.2
20260507153004 66 67 0.0 0.0 0.00 0.07 0.07 50 1008.2
20260507152004 66 120 0.0 0.0 0.00 0.07 0.07 51 1008.2
20260507150005 65 203 0.0 0.0 0.00 0.07 0.07 54 1008.1
20260507145004 65 249 0.0 0.0 0.00 0.07 0.07 53 1008.3
20260507143004 61 218 0.0 1.0 0.02 0.07 0.07 62 1008.4
20260507142005 59 220 0.0 0.0 0.07 0.07 0.07 68 1008.4
20260507135004 56 134 0.0 1.0 0.07 0.07 0.07 75 1009.0
20260507133004 57 188 0.0 12.0 0.05 0.05 0.05 75 1009.2
20260507132004 59 194 2.0 17.0 0.00 0.00 0.00 66 1009.2
20260507131005 62 204 3.0 15.0 0.00 0.00 0.00 57 1008.6
20260507130004 66 205 0.0 1.0 0.00 0.00 0.00 51 1008.4
20260507124004 67 61 0.0 0.0 0.00 0.00 0.00 51 1007.9
20260507123004 66 59 0.0 0.0 0.00 0.00 0.00 53 1008.1
20260507122004 67 49 0.0 0.0 0.00 0.00 0.00 53 1008.3
20260507121005 67 354 0.0 0.0 0.00 0.00 0.00 52 1008.3
20260507120006 67 355 0.0 0.0 0.00 0.00 0.00 54 1008.6
20260507115004 66 131 0.0 0.0 0.00 0.00 0.00 52 1008.7
20260507114004 65 125 0.0 0.0 0.00 0.00 0.00 55 1008.9
20260507113005 66 107 0.0 0.0 0.00 0.00 0.00 55 1008.9
20260507112004 64 122 0.0 0.0 0.00 0.00 0.00 56 1009.0
20260507111005 64 115 0.0 0.0 0.00 0.00 0.00 57 1009.1
20260507110005 64 115 0.0 0.0 0.00 0.00 0.00 58 1009.3
20260507105005 64 214 0.0 0.0 0.00 0.00 0.00 55 1009.4
20260507104004 64 196 0.0 0.0 0.00 0.00 0.00 59 1009.5
20260507103005 64 250 0.0 1.0 0.00 0.00 0.00 59 1009.7
20260507102006 63 200 0.0 2.0 0.00 0.00 0.00 58 1009.7
20260507101004 63 112 0.0 0.0 0.00 0.00 0.00 61 1009.7
20260507100005 62 180 0.0 0.0 0.00 0.00 0.00 65 1009.8
20260507095004 61 76 0.0 0.0 0.00 0.00 0.00 66 1009.8
20260507094005 61 96 0.0 0.0 0.00 0.00 0.00 67 1009.9
20260507093004 60 82 0.0 0.0 0.00 0.00 0.00 68 1010.0
20260507092004 60 87 0.0 0.0 0.00 0.00 0.00 65 1010.1
20260507091004 60 106 0.0 0.0 0.00 0.00 0.00 65 1010.1
20260507090005 58 97 0.0 0.0 0.00 0.00 0.00 69 1010.0
20260507085004 57 96 0.0 0.0 0.00 0.00 0.00 71 1010.1
20260507084004 57 81 0.0 0.0 0.00 0.00 0.00 73 1010.1
20260507083005 56 104 0.0 0.0 0.00 0.00 0.00 75 1010.2
20260507082004 55 126 0.0 0.0 0.00 0.00 0.00 76 1010.3
20260507081005 54 96 0.0 0.0 0.00 0.00 0.00 78 1010.3
20260507074005 52 89 0.0 0.0 0.00 0.00 0.00 84 1010.3
20260507073004 51 90 0.0 0.0 0.00 0.00 0.00 86 1010.2
20260507072004 50 66 0.0 0.0 0.00 0.00 0.00 87 1010.2
20260507071005 49 85 0.0 0.0 0.00 0.00 0.00 89 1010.2
20260507070009 48 63 0.0 0.0 0.00 0.00 0.00 89 1010.2
20260507065005 48 44 0.0 0.0 0.00 0.00 0.00 90 1010.3
20260507064004 48 78 0.0 0.0 0.00 0.00 0.00 89 1010.2
20260507063005 48 47 0.0 0.0 0.00 0.00 0.00 89 1010.4
20260507062004 48 54 0.0 0.0 0.00 0.00 0.00 89 1010.4
20260507061004 47 70 0.0 0.0 0.00 0.00 0.00 89 1010.6
20260507060004 47 73 0.0 0.0 0.00 0.00 0.00 89 1010.2
20260507053005 47 80 0.0 0.0 0.00 0.00 0.00 88 1010.3
20260507052005 47 80 0.0 0.0 0.00 0.00 0.00 88 1010.3
20260507051005 48 80 0.0 0.0 0.00 0.00 0.00 88 1010.3
20260507050005 48 73 0.0 0.0 0.00 0.00 0.00 87 1010.1
20260507045004 48 67 0.0 0.0 0.00 0.00 0.00 87 1010.1
20260507044005 48 55 0.0 0.0 0.00 0.00 0.00 86 1010.2
20260507042005 49 67 0.0 0.0 0.00 0.00 0.00 84 1010.3
20260507041004 49 67 0.0 0.0 0.00 0.00 0.00 83 1010.2